DECAYED

FENGYUN 1C DEB, 30147 (Decayed)

Orbit data source: Space-Track

FENGYUN 1C DEB, 30147 was space debris in SSO originally from a launch on Mon, 10 May 1999 UTC launched from the Taiyaun Space Center, China (TSC). Fengyun 1C debris stems from the Chinese weather satellite Fengyun-1C, which was intentionally destroyed by a Chinese anti-satellite missile in 2007. This event dramatically increased the amount of space debris, with thousands of trackable fragments posing hazards to satellites and human spaceflight. The Fengyun 1C debris cloud has become a focal point in discussions about space sustainability and the need for international regulations to prevent the creation of new debris.

Not visible in the next 10 days
Identifier
30147, 1999-025TC
Orbit
Decayed
Country
Flag of CNCN / PRC
Related business
Manufacturer
Unknown
Mission
Decayed spacecraft
Bus & Motor
Unknown
Mass
Unknown
Launch date (UTC)
1999-05-10 (26 years ago)
Launch vehicle
Unknown
Launch site
Taiyaun Space Center, China (TSC)
Object type
Payload
Rocket body
Debris
Shape & HBR
Unknown shape, 0.1 m
Radar Cross Section
Small (<0.1 m²)

Expand to show TLE details & history
Last TLE update: 9 months ago

TLE from 9 months ago
0 FENGYUN 1C DEB
1 30147U 99025TC  25022.22280896  .06682033  00000-0  63112-1 0  9990
2 30147  99.0042 313.6112 0037748 139.2522 221.1565 15.61611271923222
Epoch: 2025-01-22T05:20Z
TLE epoch observation values (Epoch: 2025-01-22T05:20:50.694Z)
Latitude
-0.00001°
Longitude
111.5822°
Altitude
405.359 km
Speed
7.657 km/s
True Right ascension
20h 54m 26s
True Declination
0° 00' 00"
Sunlit
Object was in daylight at epoch
Visualization orbit readout
Latitude
Unknown
Longitude
Unknown
Altitude
Unknown
Speed
Unknown
Apparent Right ascension
Unknown
Apparent Declination
Unknown
Sunlit
N/A
Visualization observer readout
Local Sidereal Time
19:11:56
Azimuth
Unknown
Elevation
Unknown
Doppler factor
Unknown
Orbital elements
Apogee altitude
405.5 km
Perigee altitude
354.479 km
Semi-major axis
6,758.127 km
Eccentricity
0.00377
Inclination
99.0042°
RAAN
313.6112°
Arg. of periapsis
139.2522°
True anomaly
220.87283°
Mean anomaly
221.1565°
Eccentric anomaly
221.01457°
Mean motion
3.90664 °/min
Orbital period
92.15 mins
BSTAR
0.063112
Loading maneuver chart data...
Computing Atmospheric mass density...

Documentation

Showing up to 5 results
|